Regional Weather Roundup
Issued by NWS

Home | Current Version | Previous Version | Text Only | Print | Product List | Glossary Off
Versions: 1 2 3 4 5 6 7 8 9 10 11 12 13 14 15 16 17 18 19 20 21 22 23 24 25 26 27 28 29 30 31 32 33 34 35 36 37 38 39 40 41 42 43 44 45 46 47 48 49 50

000
ASUS43 KIND 170059
RWRIN

WEATHER ROUNDUP FOR INDIANA
NATIONAL WEATHER SERVICE INDIANAPOLIS IN
800 PM EST MON JAN 16 2017

NOTE: "FAIR" INDICATES FEW OR NO CLOUDS BELOW 12,000 FEET WITH NO
SIGNIFICANT WEATHER AND/OR OBSTRUCTIONS TO VISIBILITY.

* - STATION DOES NOT REPORT WEATHER SUCH AS PRECIPITATION OR FOG.

+ - STATION NOT QUALITY CONTROLLED BY THE NATIONAL WEATHER SERVICE.
    USE DATA WITH CAUTION...ESPECIALLY DEWPOINT AND RELATIVE
    HUMIDITY OBSERVATIONS.

INZ001>003-010>013-019-020-170200-
NORTHWEST INDIANA

CITY           SKY/WX    TMP DP  RH WIND       PRES   REMARKS
GARY /AIRPORT/ CLOUDY    39  39 100 E3        30.02F FOG
MICHIGAN CITY+ CLOUDY    36  36 100 SE7       30.03F FOG
MONTICELLO +   CLOUDY    40  39  96 E7        30.02F FOG
VALPARAISO     FOG       37  37 100 E7        30.03F VSB 1/4

$$

LMZ046-743>745-170200-
SOUTHERN LAKE MICHIGAN

STATION/POSITION TIME  TEMP    WIND        PRES    WAVE
                       AIR SEA DIR/SP/G            HT
                 (UTC) (F)     (DEG/KT/KT) (MB)    (FT)
BURNS HARBOR     0040   39     140/ 10/ 14 1016.9F
MICHIGAN CITY    0030   38     100/  7/ 10   N/A

$$

INZ004-005-014>016-021>024-170200-
NORTH CENTRAL INDIANA

CITY           SKY/WX    TMP DP  RH WIND       PRES   REMARKS
ELKHART        LGT RAIN  36  36 100 E8        30.08F VSB 3/4
GOSHEN         LGT RAIN  36  33  89 SE12      30.08F VSB 1
SOUTH BEND     LGT RAIN  35  35 100 SE13      30.06F VSB 1/2 WCI  26

$$

INZ006>009-017-018-025>027-170200-
NORTHEAST INDIANA

CITY           SKY/WX    TMP DP  RH WIND       PRES   REMARKS
ANGOLA *+      CLOUDY    30  30 100 SE7       30.11S VSB 3/4 WCI  23
FORT WAYNE     LGT RAIN  37  35  92 E8        30.10F VSB 1/2
KENDALLVILLE + DRZL/FOG  34  34 100 SE8       30.10F VSB 1/2 WCI  27

$$

INZ028-029-035-036-043>045-051>053-170200-
WEST CENTRAL INDIANA

CITY           SKY/WX    TMP DP  RH WIND       PRES   REMARKS
CRAWFORDSVL +  CLOUDY    46  46 100 SE10      30.02F FOG
LAFAYETTE      CLOUDY    44  44 100 E6        30.00F FOG
TERRE HAUTE    LGT RAIN  51  50  96 SE7       30.00F

$$

INZ030>032-037>040-046>048-054>057-064-065-170200-
CENTRAL INDIANA

CITY           SKY/WX    TMP DP  RH WIND       PRES   REMARKS
COLUMBUS       LGT RAIN  48  48 100 SE6       30.08F FOG
INDIANAPOLIS   FOG       48  47  96 SE12      30.04F VSB 1
-EAGLE CREEK   CLOUDY    49  47  93 SE6       30.04F FOG
KOKOMO +       LGT RAIN  44  44 100 SE10      30.05F VSB 1/2
MT COMFORT *+  CLOUDY    48  48 100 SE9       30.07F
SHELBYVILLE    CLOUDY    51  48  89 SE7       30.06F FOG

$$

INZ033-034-041-042-049-050-058-059-170200-
EAST CENTRAL INDIANA

CITY           SKY/WX    TMP DP  RH WIND       PRES   REMARKS
MUNCIE         LGT RAIN  50  47  89 S7        30.08F FOG

$$

INZ060-061-067>069-081>083-085>088-170200-
SOUTHWEST INDIANA

CITY           SKY/WX    TMP DP  RH WIND       PRES   REMARKS
EVANSVILLE     CLOUDY    57  53  86 SE6       30.00F
HUNTINGBURG *+ CLOUDY    57  54  88 SE14      30.03F

$$

INZ062-063-066-070>080-084-089>092-170200-
SOUTH CENTRAL AND SOUTHEAST INDIANA

CITY           SKY/WX    TMP DP  RH WIND       PRES   REMARKS
BLOOMINGTON    CLOUDY    51  49  92 SE7       30.04F FOG
MADISON *+     CLOUDY    52  50  93 E9        30.10F

$$




USA.gov is the U.S. government's official web portal to all federal, state and local government web resources and services.